Weather Roundup
Issued by NWS Springfield, MO

Home | Current Version | Previous Version | Text Only | Print | Product List | Glossary On
Versions: 1 2 3 4 5 6 7 8 9 10 11 12 13 14 15 16 17 18 19 20 21 22 23 24 25 26 27 28 29 30 31 32 33 34 35 36 37 38 39 40 41 42 43 44 45 46 47 48 49 50
000
NZUS99 KSGF 282307
HRRSGF

HOURLY WEATHER
NATIONAL WEATHER SERVICE SPRINGFIELD MO
600 PM CDT SAT MAY 28 2016

......SGF CWA......

CITY           SKY/WX    TMP DP  RH WIND       PRES   REMARKS
SPRINGFIELD    MOSUNNY   79  64  60 SW8       29.95F
JOPLIN         SUNNY     79  64  60 S10       29.96S
WEST PLAINS    SUNNY     81  64  56 S13G23    29.98F
ROLLA          CLOUDY    72  65  78 NW5       29.93R THUNDER
BRANSON        MOSUNNY   82  61  47 SW7       29.97R

......SURROUNDING SGF CWA......

CITY           SKY/WX    TMP DP  RH WIND       PRES   REMARKS
CHANUTE        MOSUNNY   79  60  52 SW10      29.94S
PARSONS        MOSUNNY   80  60  50 SW9       29.96R
COFFEYVILLE    MOSUNNY   79  59  50 W7        29.94S
EMPORIA        MOSUNNY   77  58  51 W6        29.94R
GROVE OK       PTSUNNY   81  66  61 S8        29.98S
ROGERS AR        N/A     77  65  66 SW9       29.99S
SILOAM SPRINGS SUNNY     79  63  57 SW12      29.99F
HARRISON AR    SUNNY     81  63  54 S10G17    29.97S
NEAR YELLVILLE SUNNY    N/A N/A N/A S7        29.93S

......KANSAS AND MISSOURI......

CITY           SKY/WX    TMP DP  RH WIND       PRES   REMARKS
KANSAS CTY INT MOSUNNY   75  58  55 SW9       29.92R
DOWNTOWN KC    MOSUNNY   78  59  51 W9        29.91R
COLUMBIA       CLOUDY    79  61  53 SW17      29.92S
SEDALIA        SUNNY     79  60  52 W13G22    29.93S
ST JOSEPH      MOSUNNY   76  60  57 SW12      29.89S
ST LOUIS       PTSUNNY   84  65  52 S15G23    29.92S
SPIRIT OF STL  CLOUDY    84  68  58 S10       29.89F
KIRKSVILLE     LGT RAIN  74  60  61 SW7       29.89R
WICHITA        MOSUNNY   82  55  39 W10       29.94R
TOPEKA         PTSUNNY   77  58  51 SW6       29.91S
OLATHE         MOSUNNY   75  57  53 SW9       29.93S

......TENNESSEE......

CITY           SKY/WX    TMP DP  RH WIND       PRES   REMARKS
MEMPHIS        CLOUDY    82  69  64 VRB5      30.01S
NASHVILLE      CLOUDY    82  61  48 S8        30.07F

......ARKANSAS.......

CITY           SKY/WX    TMP DP  RH WIND       PRES   REMARKS
FAYETTEVILLE   MOSUNNY   78  66  66 W6        29.98S
FT SMITH       SUNNY     86  61  42 SW12      29.94R
LITTLE ROCK    MOSUNNY   83  66  56 SW6       29.99S

......OKLAHOMA.......

CITY           SKY/WX    TMP DP  RH WIND       PRES   REMARKS
TULSA          MOSUNNY   82  64  54 S5        29.92S
PONCA CITY     SUNNY     84  54  35 VRB3      29.93S
MCALESTER      MOSUNNY   83  66  56 S6        29.96S
OKLAHOMA CITY  SUNNY     82  63  52 S6        29.94F

......IOWA............

CITY           SKY/WX    TMP DP  RH WIND       PRES   REMARKS
DES MOINES     MOSUNNY   75  59  57 SW15G24   29.80R
QUAD CITIES    CLOUDY    75  68  78 S6        29.82S

......ILLINOIS........

CITY           SKY/WX    TMP DP  RH WIND       PRES   REMARKS
QUINCY         MOSUNNY   81  62  52 SW15G28   29.86R
CHICAGO        MOSUNNY   81  66  60 S20G28    29.87F



USA.gov is the U.S. government's official web portal to all federal, state and local government web resources and services.